Miscellaneous Local Product
Issued by NWS Hastings, NE

Home | Current Version | Previous Version | Graphics & Text | Print | Product List | Glossary On
Versions: 1 2 3 4 5 6 7 8 9 10 11 12 13 14 15 16 17 18 19 20 21 22 23 24 25 26 27 28 29 30 31 32 33 34 35 36 37 38 39 40 41 42 43 44 45 46 47 48 49 50
525
AXUS43 KGID 240002
MISGRI

GID CWA HOURLY WEATHER ROUNDUP
NATIONAL WEATHER SERVICE HASTINGS NE
700 PM CDT SUN APR 23 2017

NOTE: "FAIR" INDICATES FEW OR NO CLOUDS BELOW 12,000 FEET WITH NO
SIGNIFICANT WEATHER AND/OR OBSTRUCTIONS TO VISIBILITY.

...SOUTH CENTRAL NEBRASKA...

CITY           SKY/WX    TMP DP  RH WIND       PRES   REMARKS
GRAND ISLAND   CLOUDY    66  28  24 S22G36    29.87F
HASTINGS       CLOUDY    66  28  24 S17G28    29.88F
KEARNEY        CLOUDY    66  27  22 S25G35    29.85F
ORD            SUNNY     68  25  19 S22G38    29.80F
YORK           CLOUDY    66  27  22 S20G29    29.90F
AURORA         CLOUDY    67  27  22 S24G30    29.88F
LEXINGTON      CLOUDY    67  24  19 S29G36    29.81F
HOLDREGE       CLOUDY    66  27  23 S26G35    29.84F
HEBRON         CLOUDY    66  30  26 S16G23    29.93F

...NEBRASKA PANHANDLE...

CITY           SKY/WX    TMP DP  RH WIND       PRES   REMARKS
CHADRON        CLOUDY    70  41  34 S10       29.62F
ALLIANCE       CLOUDY    67  39  35 S18       29.68F
SCOTTSBLUFF    CLOUDY    74  29  19 S17       29.67F
SIDNEY         CLOUDY    66  41  40 S18G24    29.73F

...WESTERN AND NORTH CENTRAL NEBRASKA...

CITY           SKY/WX    TMP DP  RH WIND       PRES   REMARKS
VALENTINE      CLOUDY    72  32  23 S24G31    29.70F
AINSWORTH      CLOUDY    68  34  28 S17G23    29.74F
ONEILL         CLOUDY    68  22  17 S21G28    29.78F
BROKEN BOW     SUNNY     69  25  19 S23G36    29.79F
IMPERIAL       CLOUDY    68  36  30 S25G32    29.76F
NORTH PLATTE   MOSUNNY   68  35  29 S21G29    29.77F
MCCOOK         MOSUNNY   68  35  29 S23G33    29.80F

...EASTERN NEBRASKA...

CITY           SKY/WX    TMP DP  RH WIND       PRES   REMARKS
NORFOLK        SUNNY     69  25  19 S21G32    29.84F
SO SIOUX CITY  MOSUNNY   71  26  18 S25       29.86F
TEKAMAH        SUNNY     69  34  27 S18       29.89F
COLUMBUS       SUNNY     70  25  18 S18G30    29.89F
ALBION         SUNNY     69  24  18 S24G32    29.84F
OMAHA EPPLEY   CLOUDY    71  27  19 S13G24    29.92F
OFFUTT AFB     CLOUDY    70  28  21 S16       29.92F
MILLARD        CLOUDY    72  31  21 S10G16    29.93S
LINCOLN        SUNNY     69  28  21 S18G26    29.92F
NEBRASKA CITY  CLOUDY    68  19  15 S18       29.95F
BEATRICE       CLOUDY    66  33  29 S13G21    29.95F
FALLS CITY     CLOUDY    67  33  28 S12G18    29.97F

...NORTHERN KANSAS...

CITY           SKY/WX    TMP DP  RH WIND       PRES   REMARKS
GOODLAND       CLOUDY    65  39  38 S25G36    29.78F
HILL CITY      SUNNY     68  31  25 S17G33    29.87F
NORTON         CLEAR     64  23  20 S17G35    29.84F
PHILLIPSBURG   SUNNY     68  30  24 SE23G29   29.88F
SMITH CENTER   MOSUNNY   66  34  30 S23       29.90F
HAYS           CLOUDY    66  36  32 S18       29.91F
RUSSELL        CLOUDY    65  33  30 S18G30    29.92F
CONCORDIA      MOSUNNY   63  35  35 S16       29.95F
SALINA         CLOUDY    65  39  38 S13       29.98F
TOPEKA         SUNNY     67  38  34 S8        29.99F



USA.gov is the U.S. government's official web portal to all federal, state and local government web resources and services.